Temp
18 18 18 17 13 10 12 14 16 17 17 19 19 18 16 14 16 16 16 15 15 15 15 15 16 17 17 17 17 16 17 17 17 17 17 16 16 16 16 15 15 15 15 14 14 12 12 13 12
18 18 17 17 11 11 12 14 18 17 18 19 18 16 16 14 15 17 16 16 16 16 15 15 14 14 16 17 17 17 16 16 17 17 17 16 16 15 15 15 15 15 15 14 14 14 13 13 13
18 17 18 10 8 12 13 15 17 18 20 17 17 16 16 15 15 15 15 16 17 17 16 16 17 12 13 13 13 14 16 14 16 16 16 15 15 14 14 15 15 15 14 13 13 13 13 12 12
18 18 16 12 13 13 15 16 18 17 18 19 16 15 16 16 15 14 15 16 16 16 15 15 15 14 14 13 13 16 16 14 13 16 16 15 15 14 14 15 15 14 13 13 13 12 12 12 12
18 17 11 13 13 14 15 18 19 17 17 17 16 15 14 15 14 14 15 15 15 16 15 14 13 14 14 14 13 13 13 14 11 15 15 14 14 14 14 14 14 14 13 12 12 12 12 12 12
17 15 11 12 13 15 16 20 19 18 18 16 15 14 14 13 14 13 13 13 13 14 15 14 12 12 13 14 14 13 12 11 12 14 14 14 14 14 14 14 14 14 12 12 12 12 12 12 12
13 11 12 13 14 15 17 20 19 18 16 15 16 15 14 13 13 12 14 12 13 13 15 14 12 13 15 13 14 14 12 11 11 13 13 13 14 14 14 14 14 13 12 12 12 12 12 12 12
18 12 14 13 14 15 18 20 19 17 16 15 15 15 14 12 11 12 11 12 11 12 13 12 13 13 12 12 12 12 12 11 12 12 13 14 14 14 13 13 13 13 12 12 12 12 12 12 12
18 12 11 14 15 16 19 19 17 16 15 15 16 15 14 12 11 11 11 11 11 11 11 12 12 12 11 11 11 12 10 11 11 12 13 14 13 13 13 13 13 13 12 12 12 12 12 12 12
15 11 13 14 15 17 18 18 17 15 13 14 14 15 12 11 11 10 10 11 11 11 11 11 11 11 11 11 11 12 11 10 10 11 13 13 13 12 13 13 13 13 13 12 12 13 12 12 12
15 14 15 18 19 18 17 16 17 13 12 16 16 16 12 11 11 11 10 10 10 11 11 11 11 11 11 11 11 10 10 10 10 12 13 13 13 12 12 13 13 13 14 13 12 12 12 12 12
16 17 17 19 20 18 16 18 14 14 17 18 17 16 13 11 10 10 10 10 10 10 10 11 11 12 10 10 11 10 10 9 10 12 13 13 12 13 13 13 13 13 13 13 13 12 11 12 11
16 17 19 20 20 19 18 16 16 15 17 16 14 14 12 11 11 11 10 11 10 10 10 10 11 11 10 10 10 9 9 9 10 11 13 12 12 12 13 12 12 13 13 13 12 12 12 12 12
18 18 17 18 19 19 16 14 14 17 17 15 13 12 12 11 11 10 11 12 11 10 10 10 10 10 10 10 11 9 9 10 10 10 11 12 13 13 12 12 12 12 12 12 12 12 12 12 11
18 16 15 16 18 18 18 15 13 18 16 14 12 11 11 11 11 12 12 11 11 10 10 10 9 10 10 11 10 9 9 9 9 10 11 12 13 12 12 12 12 12 11 12 12 12 11 11 11
16 16 15 17 18 18 19 15 16 17 14 13 12 11 11 12 12 11 11 11 11 10 10 9 9 10 9 9 9 8 9 10 11 12 12 12 12 12 12 12 11 12 12 12 12 12 11 11 11
13 13 14 15 17 18 18 16 15 16 14 13 12 12 11 12 11 11 11 11 11 10 9 9 10 9 9 8 8 9 9 10 11 11 12 12 12 12 12 12 12 12 12 12 12 12 11 11 11
12 13 14 14 16 16 16 15 15 14 13 13 13 13 12 12 13 12 11 10 11 9 9 9 9 9 8 8 8 9 9 10 11 11 12 12 11 11 11 12 12 12 12 12 12 11 11 11 10
15 15 14 14 16 17 16 15 14 12 12 12 13 13 13 12 12 11 10 10 10 9 9 9 9 9 9 8 8 9 9 10 11 11 11 11 11 11 12 11 11 12 12 12 12 11 10 10 10
14 14 14 15 16 17 15 16 14 11 12 13 13 13 14 12 12 12 11 10 10 10 9 9 9 10 9 8 9 9 9 10 11 11 11 11 12 11 11 11 12 12 13 12 11 11 10 10 9
14 13 14 15 16 16 17 16 15 14 13 15 14 14 14 13 14 13 13 11 10 10 9 9 9 10 9 8 9 9 9 10 10 10 11 11 11 11 11 11 12 12 12 12 12 11 11 10 10
13 15 16 15 15 14 16 13 15 14 13 13 14 14 14 14 14 14 14 14 13 12 10 9 9 9 9 9 9 10 10 10 11 11 11 11 11 11 11 12 12 12 12 11 11 11 10 10 9
15 16 15 15 14 15 16 13 14 15 15 14 15 15 16 15 15 15 15 16 14 12 12 11 9 9 9 9 10 10 10 11 11 11 11 12 12 12 12 12 12 12 11 11 11 11 10 10 9
17 16 16 15 14 13 15 14 13 14 16 16 16 16 16 16 15 15 15 15 14 13 12 11 11 10 10 9 10 10 10 11 11 12 12 12 12 12 12 12 12 12 11 11 11 11 11 10 10
16 15 12 13 12 12 15 14 14 16 15 17 16 16 18 17 15 15 14 14 14 13 13 12 12 11 10 10 10 11 11 11 12 12 12 12 12 12 13 12 12 12 11 11 12 11 10 10 9
14 14 11 14 12 13 14 13 15 16 17 18 19 20 20 17 17 16 16 15 14 14 13 12 12 11 11 11 11 11 11 12 12 12 12 12 12 13 13 12 12 12 12 11 11 11 10 10 9
15 13 16 12 11 11 12 14 16 17 16 15 16 17 17 16 17 17 17 17 15 14 14 13 12 12 12 12 12 12 11 11 12 12 12 13 13 12 12 12 12 12 12 11 11 10 10 10 9
16 16 15 12 12 12 13 13 14 16 17 17 15 15 17 17 16 17 17 17 16 15 15 13 13 13 13 12 12 11 11 11 11 11 12 12 12 12 11 11 11 11 11 11 10 10 10 9 9
15 15 15 14 12 12 12 12 13 15 16 17 15 17 18 17 17 18 18 17 17 16 15 15 13 13 13 12 11 10 10 11 11 12 12 12 12 11 10 10 10 10 10 10 10 10 9 9 9
16 16 15 12 13 11 10 12 15 15 15 16 17 17 18 20 20 19 18 18 16 16 15 16 16 14 13 10 11 12 13 14 13 13 13 13 13 10 11 10 10 10 9 9 9 9 9 9 8
Height
1501 1504 1504 1504 1516 1520 1523 1514 1500 1497 1493 1487 1483 1480 1483 1487 1487 1495 1486 1486 1488 1488 1490 1492 1494 1502 1499 1496 1496 1501 1503 1514 1515 1516 1517 1519 1521 1521 1520 1521 1524 1527 1530 1531 1536 1539 1540 1543 1544
1501 1503 1504 1504 1523 1533 1525 1507 1499 1493 1491 1488 1485 1484 1484 1486 1485 1484 1484 1485 1485 1486 1490 1492 1492 1502 1500 1501 1499 1498 1504 1516 1517 1518 1518 1521 1522 1524 1524 1524 1525 1529 1531 1532 1536 1539 1541 1545 1546
1502 1504 1504 1510 1528 1529 1523 1501 1494 1488 1489 1489 1489 1486 1483 1482 1482 1483 1483 1483 1483 1485 1488 1488 1486 1489 1499 1501 1505 1502 1501 1517 1520 1518 1518 1521 1521 1529 1528 1527 1527 1530 1532 1535 1537 1541 1543 1546 1547
1502 1505 1506 1515 1517 1512 1505 1492 1490 1489 1488 1488 1488 1487 1484 1483 1483 1483 1483 1483 1481 1483 1486 1489 1486 1482 1494 1500 1505 1508 1509 1513 1526 1518 1516 1520 1522 1530 1530 1529 1528 1531 1534 1537 1538 1542 1544 1548 1550
1503 1504 1515 1518 1514 1503 1496 1488 1483 1484 1485 1486 1490 1484 1484 1484 1484 1484 1482 1480 1480 1480 1484 1486 1488 1487 1489 1492 1501 1503 1508 1508 1522 1517 1517 1521 1525 1531 1530 1531 1529 1532 1535 1538 1540 1543 1546 1550 1552
1502 1504 1521 1523 1511 1499 1491 1486 1485 1484 1485 1488 1486 1483 1483 1482 1482 1481 1481 1479 1479 1479 1481 1482 1485 1490 1486 1491 1495 1499 1502 1507 1516 1515 1521 1523 1525 1532 1531 1534 1532 1534 1536 1538 1542 1546 1549 1551 1554
1501 1509 1517 1514 1509 1499 1487 1484 1484 1485 1486 1483 1481 1481 1481 1481 1481 1479 1478 1479 1479 1478 1478 1476 1481 1484 1485 1486 1487 1491 1494 1498 1509 1517 1522 1523 1523 1530 1532 1537 1535 1538 1538 1540 1543 1547 1550 1554 1557
1499 1503 1509 1509 1507 1501 1483 1484 1483 1484 1482 1481 1480 1477 1479 1477 1477 1477 1477 1476 1479 1477 1475 1475 1477 1481 1481 1485 1476 1481 1487 1494 1503 1518 1522 1522 1526 1530 1538 1540 1537 1539 1544 1543 1544 1548 1552 1555 1558
1498 1509 1516 1506 1501 1491 1482 1485 1484 1480 1479 1478 1475 1474 1474 1474 1476 1476 1476 1476 1476 1478 1478 1478 1479 1478 1479 1483 1488 1486 1488 1490 1502 1516 1520 1520 1528 1536 1541 1541 1539 1540 1545 1546 1547 1549 1552 1556 1558
1496 1507 1501 1489 1489 1487 1481 1482 1482 1481 1479 1475 1472 1472 1474 1476 1477 1475 1476 1474 1475 1475 1478 1480 1479 1481 1480 1484 1486 1486 1491 1499 1508 1517 1518 1525 1531 1538 1542 1542 1543 1543 1545 1549 1549 1551 1554 1558 1560
1491 1495 1487 1483 1481 1481 1479 1478 1478 1477 1478 1467 1468 1470 1473 1476 1476 1476 1475 1474 1475 1475 1476 1478 1479 1480 1481 1484 1486 1491 1495 1501 1508 1517 1518 1525 1532 1536 1538 1542 1544 1545 1547 1550 1551 1553 1557 1560 1564
1490 1484 1484 1478 1477 1477 1476 1472 1473 1470 1465 1464 1466 1467 1467 1470 1474 1475 1474 1472 1473 1475 1476 1478 1480 1480 1482 1484 1490 1494 1497 1501 1509 1518 1521 1526 1533 1536 1540 1542 1545 1547 1549 1551 1553 1555 1558 1561 1563
1487 1482 1478 1477 1475 1472 1471 1470 1471 1465 1463 1464 1465 1467 1468 1468 1471 1472 1472 1472 1473 1476 1477 1479 1481 1481 1482 1484 1488 1493 1500 1506 1512 1517 1523 1528 1533 1537 1540 1543 1546 1547 1548 1553 1554 1556 1558 1561 1564
1481 1479 1475 1472 1470 1469 1470 1469 1468 1461 1459 1460 1462 1463 1465 1469 1470 1469 1470 1470 1472 1475 1477 1479 1482 1483 1485 1488 1490 1495 1500 1506 1512 1517 1523 1529 1534 1537 1541 1544 1546 1548 1550 1552 1555 1556 1558 1562 1565
1479 1479 1472 1466 1465 1465 1464 1468 1465 1456 1456 1458 1460 1463 1464 1467 1467 1468 1468 1469 1471 1474 1476 1479 1482 1485 1488 1491 1494 1498 1504 1507 1513 1520 1527 1532 1534 1537 1542 1543 1547 1548 1549 1552 1555 1557 1560 1563 1565
1479 1477 1482 1463 1461 1459 1461 1467 1450 1452 1455 1454 1458 1463 1464 1466 1467 1466 1466 1467 1470 1473 1474 1477 1480 1484 1488 1491 1496 1501 1505 1510 1516 1522 1526 1531 1535 1539 1542 1544 1547 1547 1551 1553 1555 1558 1560 1562 1565
1483 1489 1481 1470 1459 1459 1461 1461 1447 1447 1452 1454 1456 1461 1463 1464 1464 1464 1464 1465 1467 1470 1472 1475 1479 1483 1486 1491 1497 1501 1507 1512 1517 1523 1527 1531 1535 1537 1541 1543 1544 1547 1550 1552 1556 1558 1559 1562 1563
1486 1485 1479 1476 1459 1458 1461 1458 1449 1449 1451 1452 1455 1457 1459 1460 1462 1462 1462 1464 1466 1468 1471 1474 1477 1481 1486 1492 1498 1504 1510 1514 1520 1524 1528 1530 1534 1537 1539 1542 1544 1547 1548 1552 1555 1558 1559 1563 1563
1472 1475 1477 1469 1456 1463 1457 1454 1450 1448 1450 1449 1450 1452 1455 1459 1462 1461 1461 1462 1465 1468 1470 1473 1477 1481 1486 1492 1498 1504 1508 1512 1518 1523 1527 1530 1534 1535 1537 1540 1544 1546 1548 1552 1554 1557 1557 1561 1562
1472 1476 1475 1466 1454 1460 1456 1453 1447 1448 1444 1442 1444 1446 1449 1456 1458 1458 1459 1461 1463 1466 1470 1474 1476 1482 1486 1491 1497 1504 1509 1513 1517 1521 1525 1529 1532 1535 1536 1540 1542 1548 1549 1550 1553 1554 1556 1558 1560
1468 1471 1470 1467 1455 1452 1453 1455 1449 1443 1443 1440 1442 1443 1446 1447 1451 1454 1456 1459 1462 1464 1467 1471 1475 1479 1485 1492 1499 1503 1509 1514 1517 1519 1523 1527 1530 1532 1536 1539 1541 1545 1547 1548 1550 1551 1552 1554 1555
1469 1456 1458 1461 1468 1473 1450 1475 1452 1443 1441 1440 1437 1439 1440 1442 1445 1450 1453 1455 1458 1462 1466 1471 1475 1478 1484 1489 1496 1500 1505 1509 1512 1516 1521 1524 1528 1531 1533 1537 1539 1541 1542 1545 1546 1547 1549 1550 1550
1455 1450 1454 1455 1461 1460 1455 1468 1454 1441 1442 1436 1431 1430 1433 1436 1440 1443 1447 1453 1457 1461 1464 1469 1474 1478 1484 1488 1493 1498 1502 1507 1511 1515 1517 1522 1526 1528 1529 1532 1534 1536 1538 1540 1541 1544 1543 1545 1545
1442 1450 1451 1453 1459 1473 1456 1461 1456 1445 1433 1425 1424 1422 1425 1429 1434 1440 1446 1452 1456 1459 1463 1467 1470 1473 1478 1483 1489 1494 1498 1503 1508 1511 1514 1517 1521 1523 1524 1528 1529 1530 1533 1535 1536 1538 1539 1539 1540
1444 1454 1473 1471 1472 1472 1449 1459 1444 1427 1423 1418 1416 1417 1419 1424 1430 1435 1439 1445 1452 1456 1460 1465 1468 1472 1476 1481 1485 1488 1493 1498 1502 1504 1508 1512 1515 1516 1518 1522 1525 1524 1526 1529 1531 1532 1533 1533 1534
1440 1447 1468 1464 1471 1465 1451 1455 1435 1416 1414 1414 1410 1411 1414 1419 1424 1429 1433 1440 1445 1450 1455 1460 1464 1469 1473 1476 1480 1485 1490 1494 1497 1500 1503 1506 1509 1512 1515 1517 1519 1521 1522 1524 1525 1527 1526 1525 1526
1432 1441 1432 1456 1461 1468 1454 1438 1421 1410 1408 1407 1405 1408 1413 1416 1419 1423 1429 1433 1439 1445 1448 1452 1458 1464 1468 1472 1476 1480 1484 1487 1489 1494 1498 1501 1504 1507 1510 1514 1516 1517 1517 1518 1519 1516 1518 1519 1520
1419 1419 1439 1447 1462 1464 1451 1446 1437 1416 1412 1406 1406 1406 1409 1412 1417 1420 1426 1430 1434 1438 1443 1449 1454 1456 1461 1468 1472 1477 1482 1485 1489 1492 1494 1497 1499 1501 1504 1508 1510 1510 1511 1511 1511 1511 1511 1512 1513
1422 1421 1422 1430 1442 1453 1460 1448 1415 1410 1406 1404 1403 1403 1404 1409 1413 1417 1422 1425 1429 1435 1440 1444 1448 1451 1455 1463 1471 1477 1482 1484 1486 1487 1488 1491 1494 1496 1499 1499 1499 1500 1501 1501 1503 1503 1504 1505 1507
1407 1412 1415 1438 1441 1444 1452 1440 1405 1405 1404 1402 1402 1402 1403 1405 1408 1412 1417 1422 1426 1428 1433 1435 1439 1443 1449 1457 1466 1472 1473 1471 1475 1476 1478 1482 1480 1484 1492 1488 1490 1488 1493 1495 1497 1498 1497 1498 1499
Wind_Speed
3 2 2 1 4 5 3 5 4 6 6 2 5 4 5 6 2 3 8 5 8 15 20 25 28 28 31 32 28 24 27 24 24 24 24 24 27 29 32 33 32 30 28 26 23 24 23 21 22
4 3 1 3 4 3 5 4 4 4 6 6 9 3 1 3 6 4 3 1 6 13 19 23 21 20 25 29 28 29 24 22 25 25 25 26 28 32 34 35 33 29 27 26 25 22 22 21 22
4 3 0 4 3 3 4 5 6 5 11 9 4 0 5 6 9 8 9 5 12 15 18 21 19 13 15 14 16 26 30 23 28 28 27 30 32 34 35 33 31 29 28 27 25 23 24 23 22
4 3 4 4 5 7 6 10 13 4 7 7 6 3 3 5 4 8 8 4 12 21 23 18 22 24 31 15 21 25 27 29 27 31 33 34 36 33 33 32 31 30 30 27 25 24 23 22 22
4 2 4 2 5 5 6 13 23 6 5 3 9 3 1 3 3 5 8 8 15 22 23 22 29 40 32 22 15 19 31 39 34 34 34 36 37 35 33 33 33 32 31 28 23 22 21 21 19
2 3 4 3 5 5 7 19 7 4 3 5 4 3 3 3 4 6 7 6 14 16 15 20 31 34 22 19 23 17 32 41 38 35 37 40 38 35 33 33 32 32 33 28 22 20 20 20 17
6 4 4 4 5 7 4 5 6 3 9 4 5 3 3 5 6 5 5 3 7 12 12 15 20 20 11 25 35 36 34 45 42 39 41 40 38 35 32 32 33 33 33 29 22 20 20 18 15
5 4 2 4 4 8 6 6 7 5 4 5 7 5 4 4 3 6 4 3 5 10 9 13 21 27 23 7 9 21 48 47 43 40 40 35 33 32 32 32 32 33 31 28 23 19 18 17 14
6 3 3 5 2 7 13 4 3 4 7 8 8 8 7 4 9 11 8 6 6 8 12 25 28 30 19 19 10 24 40 42 41 38 41 41 39 34 32 31 31 32 30 27 23 17 14 13 10
5 4 7 6 6 10 18 2 7 5 4 7 9 11 7 7 7 7 11 10 8 11 11 14 18 18 20 14 11 34 43 37 36 37 41 40 37 33 30 29 29 30 29 27 23 18 14 11 10
5 6 4 17 23 19 14 8 8 8 6 13 12 12 11 10 10 10 8 7 8 10 13 15 15 16 17 19 33 44 44 41 39 37 40 39 36 34 32 30 28 27 25 24 23 19 15 12 8
3 11 7 17 26 10 4 7 7 18 7 6 11 9 13 13 11 7 7 7 8 9 14 16 15 16 20 25 36 33 44 44 40 40 39 39 35 32 29 27 26 24 23 22 20 18 17 13 11
4 6 12 19 22 24 9 7 8 13 12 7 7 9 9 13 9 9 8 6 9 12 18 19 19 23 26 29 34 42 45 42 38 36 36 36 31 26 25 25 24 23 21 18 18 16 13 11 10
5 9 15 16 21 15 8 5 2 12 16 10 11 13 11 13 10 9 7 7 9 11 21 21 21 27 28 34 38 46 48 43 42 41 33 32 32 33 30 26 23 20 19 17 13 11 10 9 7
6 8 7 7 8 6 12 2 9 11 21 13 16 15 14 13 11 7 4 7 10 15 18 20 24 28 30 34 38 45 50 45 42 44 41 36 34 31 28 24 23 20 17 15 12 11 10 10 8
4 1 3 3 3 5 7 9 8 15 19 19 18 18 18 16 13 9 7 7 9 14 19 23 26 29 35 35 41 44 42 41 45 45 37 33 32 28 23 22 21 18 15 13 11 10 11 10 10
2 4 6 10 4 3 3 10 5 17 18 15 20 20 20 18 15 12 7 8 11 13 16 22 28 33 37 39 44 38 38 40 42 39 34 33 31 25 24 22 18 17 16 13 12 12 10 10 9
6 5 5 6 6 6 5 12 4 15 17 16 19 21 20 20 17 14 11 11 14 15 17 20 28 31 35 41 41 37 36 36 35 35 33 30 28 27 23 19 17 17 16 15 13 12 11 11 9
4 3 5 8 15 3 10 6 10 8 14 15 19 20 21 22 18 15 12 13 16 18 20 23 24 22 33 41 42 38 37 34 35 34 30 29 26 22 22 20 18 15 16 15 14 14 16 15 13
6 5 10 11 18 4 9 9 6 7 11 20 22 24 24 23 21 19 16 18 19 20 24 29 25 26 32 39 43 38 38 33 34 33 30 27 24 24 20 19 17 18 17 17 18 18 18 17 17
8 10 8 11 7 5 5 5 4 5 8 18 22 22 26 28 24 23 20 19 19 24 25 28 24 25 30 40 41 38 36 34 32 30 28 27 24 21 21 19 19 22 21 21 21 21 21 21 22
11 11 13 9 3 5 3 5 4 6 10 7 17 22 26 29 26 24 21 19 20 23 25 26 25 26 31 43 43 40 42 36 36 30 26 24 24 24 24 23 25 25 25 27 26 24 25 26 27
12 7 9 9 6 3 1 1 7 2 6 11 17 27 32 33 31 28 26 21 21 23 26 27 27 30 33 42 44 42 41 38 37 34 30 27 29 31 30 31 29 28 27 27 26 28 28 30 31
6 4 4 1 3 3 5 5 5 6 9 9 12 29 32 33 34 28 27 25 25 25 27 29 32 34 36 46 47 46 44 41 39 37 36 35 33 34 35 36 33 30 31 31 31 29 30 31 32
5 3 3 2 1 5 3 3 8 8 8 9 10 24 34 33 34 32 32 33 31 32 33 34 35 39 40 47 49 47 48 43 43 41 37 37 37 37 39 38 37 34 34 33 33 31 28 29 31
8 9 5 5 4 4 0 5 6 7 8 20 27 27 34 34 36 36 35 37 36 35 37 39 40 43 44 47 47 45 48 47 45 43 41 39 38 38 38 38 36 36 36 36 34 31 29 28 28
5 5 10 6 3 2 4 7 8 8 8 6 15 19 25 34 38 40 38 38 39 39 41 44 43 42 44 46 47 48 47 46 45 43 40 38 38 39 38 36 35 37 36 37 35 31 30 31 27
10 8 4 1 5 4 3 5 6 8 8 6 6 15 30 34 37 40 40 41 42 42 41 42 44 44 44 45 46 46 45 44 43 42 40 40 40 43 44 41 39 40 39 38 37 37 38 32 30
4 4 2 4 4 6 1 6 7 10 9 8 8 22 30 33 37 40 42 42 42 43 43 44 45 45 46 47 45 44 42 42 42 42 44 43 44 47 42 38 39 36 34 42 38 38 41 31 30
5 6 6 5 3 1 5 7 4 8 6 3 9 20 27 28 31 36 41 43 42 42 43 45 46 48 48 44 40 34 20 32 36 46 45 39 44 41 31 36 42 41 44 44 38 37 34 32 33
Wind_Direction
127 123 68 120 50 62 268 272 288 307 343 301 325 134 125 38 30 218 86 142 208 190 185 180 183 192 183 174 165 162 169 174 173 175 175 174 168 159 153 150 149 148 146 141 136 127 123 118 108
133 126 112 100 84 42 278 251 261 217 281 287 117 95 69 130 149 173 218 222 214 201 186 180 177 198 188 186 178 177 168 183 185 182 178 173 163 157 151 149 146 144 143 139 139 134 121 116 107
129 160 241 93 109 179 232 226 235 300 300 339 308 101 167 165 175 181 201 200 200 196 201 211 209 177 163 167 178 171 170 185 192 185 177 168 158 154 149 146 144 143 141 139 136 129 119 114 107
129 158 68 86 232 250 224 261 259 271 260 266 260 230 207 185 176 207 226 233 194 199 202 209 220 209 196 219 231 227 202 199 195 184 173 165 156 154 149 146 143 143 143 140 138 124 119 116 109
159 112 58 352 262 254 254 276 302 237 186 219 229 228 255 233 279 277 274 253 203 210 217 205 195 191 215 218 208 205 208 208 195 181 167 160 155 156 150 148 145 145 143 140 135 128 124 121 114
93 84 68 263 259 284 280 297 301 198 203 206 212 195 87 228 235 342 294 252 221 226 216 214 213 219 216 225 234 233 210 188 183 171 165 160 155 156 149 149 145 145 144 141 139 130 129 129 120
123 91 202 234 279 306 241 325 225 172 205 201 162 208 180 203 253 256 262 211 215 239 235 204 201 202 196 230 233 237 218 183 181 174 166 159 153 152 147 147 142 144 144 143 143 134 129 128 123
153 96 188 238 225 264 280 339 125 176 226 182 183 224 191 232 115 163 185 161 190 196 234 193 177 169 187 162 228 215 173 165 162 165 160 155 151 149 148 146 142 144 148 146 146 137 129 125 125
155 74 227 243 171 263 296 1 305 210 185 201 211 232 223 170 142 163 188 163 175 175 183 178 181 187 191 217 206 155 157 178 161 168 162 155 153 151 149 144 141 142 148 150 149 146 139 130 126
146 149 235 204 198 266 289 280 208 193 211 234 225 210 198 147 155 151 174 174 171 157 166 169 179 188 191 203 173 164 161 152 162 167 160 155 150 149 145 141 143 143 146 151 154 157 157 157 148
193 217 203 273 280 286 275 246 200 192 240 228 218 203 185 167 151 151 158 192 186 181 165 167 169 181 188 174 155 156 151 159 160 164 158 154 153 152 150 148 147 145 146 148 150 156 161 159 161
192 249 229 280 296 298 229 220 214 197 229 253 215 201 187 165 170 164 161 181 185 189 186 179 182 182 175 173 171 164 166 160 160 166 161 159 159 156 156 152 151 148 145 143 146 155 155 151 150
228 265 284 297 291 295 264 230 242 232 242 210 215 209 194 168 167 187 163 160 183 182 186 176 176 167 163 164 169 167 161 160 165 165 163 161 157 161 162 161 157 153 147 152 146 148 152 152 154
245 272 279 287 281 286 183 239 207 229 206 226 205 203 195 189 183 179 189 181 203 186 180 176 175 169 168 166 166 164 164 161 164 168 160 164 175 174 172 168 162 160 155 152 143 143 149 161 161
277 290 300 251 260 239 158 224 241 235 213 226 206 206 200 193 196 181 161 186 207 199 191 191 181 174 171 170 169 171 171 168 175 173 171 186 180 176 177 172 174 166 158 157 155 157 162 175 181
309 315 316 286 270 252 165 270 253 216 205 214 203 206 197 196 209 182 165 206 207 205 201 193 180 181 178 181 174 170 172 174 175 175 184 185 183 181 179 187 179 173 173 170 173 178 172 180 192
333 243 246 312 185 293 170 275 275 197 204 212 208 205 199 196 208 207 179 210 216 225 206 195 193 188 185 180 176 173 175 183 183 187 187 186 187 184 192 188 185 191 189 190 193 194 193 201 204
198 233 250 247 282 2 263 260 250 205 209 223 214 214 202 203 213 210 205 194 209 211 210 196 201 197 183 178 178 180 185 188 190 188 186 186 189 195 194 190 197 206 203 208 212 214 222 229 231
152 250 277 269 279 318 284 253 253 208 218 236 224 219 214 208 209 210 216 202 189 206 206 199 185 189 189 183 184 185 189 188 190 191 193 195 196 193 197 197 207 219 225 228 231 233 232 241 243
216 238 264 291 263 169 269 263 261 194 226 225 219 225 224 214 205 205 213 201 189 196 203 201 190 194 194 191 188 190 190 189 192 193 200 202 200 205 205 211 224 238 240 235 237 241 243 247 249
216 213 244 230 322 263 238 288 276 243 259 257 239 238 230 223 214 204 208 206 198 198 200 201 206 196 197 190 191 192 192 194 195 200 204 205 213 218 224 229 240 248 249 249 246 245 246 248 247
237 212 236 260 266 255 140 265 276 236 237 247 249 228 231 228 223 212 207 211 203 200 200 206 204 203 196 192 190 194 196 200 201 203 207 214 222 230 232 239 246 250 251 251 250 251 251 251 249
237 191 206 239 228 195 256 116 265 165 255 239 244 237 233 234 223 213 210 216 205 196 197 198 202 204 202 196 195 199 201 206 207 212 215 224 231 234 237 241 247 248 249 252 254 252 252 254 252
237 237 267 152 154 213 225 178 243 217 216 241 235 241 231 224 225 222 217 213 207 199 196 196 194 193 193 192 196 200 202 207 210 214 222 225 236 237 238 241 248 250 251 252 251 256 255 259 256
158 146 289 280 230 219 194 209 244 249 229 218 224 222 229 225 221 220 217 211 210 203 198 197 194 193 193 195 201 204 207 211 219 219 222 230 235 238 239 244 245 247 250 256 258 259 263 265 257
184 171 180 212 198 246 285 240 249 234 258 245 234 231 223 218 223 223 225 219 214 207 203 202 200 199 199 200 202 207 210 215 219 223 227 234 240 245 249 252 253 254 256 258 258 261 263 267 258
210 174 203 118 37 79 239 285 300 289 285 220 208 203 213 219 220 225 224 226 221 215 211 209 207 207 207 208 210 214 216 220 225 229 235 241 248 253 255 258 260 261 260 261 263 267 263 265 257
212 163 125 349 156 219 266 273 239 286 282 188 183 194 213 219 221 226 226 228 228 227 222 217 217 218 217 217 219 222 225 231 236 241 245 247 252 256 258 260 260 264 263 263 260 264 260 251 252
177 185 96 128 143 170 190 258 226 238 228 224 198 207 212 217 224 227 229 231 233 232 230 229 226 227 227 225 227 230 236 241 243 246 250 252 257 263 267 269 264 260 264 259 262 264 261 252 252
189 189 157 151 188 188 151 261 233 250 240 234 222 207 209 213 223 228 229 231 233 235 235 235 235 234 231 227 229 240 240 244 250 249 248 254 261 255 264 270 269 250 252 256 256 270 249 251 248